TimePST,TemperatureF,Dew PointF,Humidity,Sea Level PressureIn,VisibilityMPH,Wind Direction,Wind SpeedMPH,Gust SpeedMPH,PrecipitationIn,Events,Conditions,WindDirDegrees,DateUTC
12:02 AM,53.6,46.4,77,29.95,10.0,West,9.2,-,0.00,Rain,Light Rain,280,2014-01-31 08:02:00
12:54 AM,52.0,46.9,83,29.98,10.0,SW,3.5,-,0.00,,Overcast,230,2014-01-31 08:54:00
1:54 AM,51.1,46.9,86,29.99,10.0,South,4.6,-,N/A,,Overcast,170,2014-01-31 09:54:00
2:54 AM,51.1,46.0,83,30.00,10.0,WSW,4.6,-,N/A,,Mostly Cloudy,250,2014-01-31 10:54:00
3:42 AM,51.8,44.6,76,29.96,10.0,West,6.9,-,N/A,,Mostly Cloudy,270,2014-01-31 11:42:00
3:54 AM,52.0,46.0,80,30.00,10.0,Variable,3.5,-,N/A,,Mostly Cloudy,0,2014-01-31 11:54:00
4:54 AM,52.0,45.0,77,30.02,10.0,West,5.8,-,N/A,,Mostly Cloudy,280,2014-01-31 12:54:00
5:54 AM,51.1,45.0,80,30.03,10.0,South,3.5,-,N/A,,Mostly Cloudy,190,2014-01-31 13:54:00
6:25 AM,50.0,44.6,82,29.99,10.0,South,3.5,-,N/A,,Scattered Clouds,170,2014-01-31 14:25:00
6:54 AM,46.9,44.1,90,30.05,10.0,Calm,Calm,-,N/A,,Scattered Clouds,0,2014-01-31 14:54:00
7:06 AM,48.2,44.6,87,30.02,10.0,Calm,Calm,-,N/A,,Mostly Cloudy,0,2014-01-31 15:06:00
7:54 AM,51.1,46.0,83,30.06,10.0,South,5.8,-,N/A,,Mostly Cloudy,180,2014-01-31 15:54:00
8:54 AM,54.0,46.0,75,30.09,10.0,Calm,Calm,-,N/A,,Overcast,0,2014-01-31 16:54:00
9:19 AM,53.6,44.6,72,30.06,10.0,West,3.5,-,N/A,,Scattered Clouds,260,2014-01-31 17:19:00
9:39 AM,55.4,46.4,72,30.07,10.0,Variable,3.5,-,N/A,,Mostly Cloudy,0,2014-01-31 17:39:00
9:54 AM,54.0,46.0,75,30.12,10.0,West,3.5,-,N/A,,Mostly Cloudy,280,2014-01-31 17:54:00
10:12 AM,55.4,46.4,72,30.09,10.0,West,4.6,-,N/A,,Partly Cloudy,260,2014-01-31 18:12:00
10:39 AM,55.4,46.4,72,30.09,10.0,West,5.8,-,N/A,,Mostly Cloudy,260,2014-01-31 18:39:00
10:54 AM,55.0,46.9,74,30.12,10.0,West,8.1,-,N/A,,Scattered Clouds,280,2014-01-31 18:54:00
11:54 AM,55.0,44.1,67,30.12,10.0,West,9.2,-,N/A,,Scattered Clouds,270,2014-01-31 19:54:00
12:21 PM,55.4,42.8,63,30.07,10.0,West,10.4,17.3,N/A,,Mostly Cloudy,260,2014-01-31 20:21:00
12:30 PM,55.4,42.8,63,30.07,10.0,West,10.4,-,N/A,,Scattered Clouds,280,2014-01-31 20:30:00
12:54 PM,55.9,44.1,64,30.09,10.0,WNW,8.1,-,N/A,,Clear,300,2014-01-31 20:54:00
1:54 PM,57.9,42.1,56,30.09,10.0,West,9.2,-,N/A,,Clear,270,2014-01-31 21:54:00
2:54 PM,57.0,45.0,64,30.09,10.0,West,13.8,19.6,N/A,,Clear,280,2014-01-31 22:54:00
3:54 PM,55.9,44.1,64,30.09,10.0,West,15.0,19.6,N/A,,Clear,270,2014-01-31 23:54:00
4:54 PM,55.0,43.0,64,30.09,10.0,West,10.4,20.7,N/A,,Clear,260,2014-02-01 00:54:00
5:54 PM,53.1,43.0,69,30.10,10.0,WSW,12.7,20.7,N/A,,Clear,250,2014-02-01 01:54:00
6:54 PM,53.1,42.1,66,30.12,10.0,West,12.7,20.7,N/A,,Clear,260,2014-02-01 02:54:00
7:54 PM,52.0,42.1,69,30.13,10.0,West,11.5,20.7,N/A,,Clear,270,2014-02-01 03:54:00
8:54 PM,52.0,43.0,71,30.14,10.0,West,11.5,18.4,N/A,,Clear,270,2014-02-01 04:54:00
9:54 PM,51.1,44.1,77,30.14,10.0,West,11.5,18.4,N/A,,Partly Cloudy,270,2014-02-01 05:54:00
10:39 PM,51.8,42.8,71,30.11,10.0,WSW,10.4,-,N/A,,Mostly Cloudy,250,2014-02-01 06:39:00
10:54 PM,51.1,43.0,74,30.14,10.0,West,10.4,17.3,N/A,,Scattered Clouds,260,2014-02-01 06:54:00
11:54 PM,51.1,43.0,74,30.14,10.0,West,10.4,-,N/A,,Clear,270,2014-02-01 07:54:00